Location: Harmony
(28.2000°N, 81.1500°W)
Time: 04:13:10
(UTC-05:00)

ASC 2 Rocket - Visible Passes

Search period start: 22 January 2019 00:00
Search period end: 01 February 2019 00:00
Orbit: 556 x 2345 km, 24.0° (Epoch: 21 January)

Date Brightness Start Highest point End Pass type
(mag) Time Alt. Az. Time Alt. Az. Time Alt. Az.
22 Jan 5.7 18:06:15 10° W 18:14:59 62° S 18:27:42 10° ESE visible
22 Jan 6.4 20:09:15 10° W 20:19:30 41° SSW 20:28:45 20° SE visible
22 Jan 7.2 22:15:25 10° WSW 22:23:38 21° SSW 22:23:38 21° SSW visible
23 Jan 6.1 19:02:35 10° W 19:11:48 48° SSW 19:24:26 10° SE visible
23 Jan 6.9 21:06:54 10° WSW 21:16:27 27° SSW 21:22:05 21° S visible
24 Jan 6.6 19:59:30 10° W 20:08:40 33° SSW 20:20:19 10° SE visible
24 Jan 7.4 22:06:48 10° WSW 22:13:30 15° SSW 22:15:33 15° SSW visible
25 Jan 6.3 18:52:50 10° W 19:01:07 39° SSW 19:12:34 10° SE visible
25 Jan 7.1 20:57:43 10° WSW 21:05:38 21° SSW 21:14:13 11° SSE visible
26 Jan 6.8 19:50:06 10° WSW 19:57:58 26° SSW 20:07:56 10° SSE visible
26 Jan 7.6 22:00:55 10° SW 22:02:53 10° SSW 22:04:54 10° SSW visible
27 Jan 6.5 18:43:22 10° WSW 18:50:36 31° SSW 19:00:28 10° SE visible
27 Jan 7.4 20:49:27 10° SW 20:55:02 15° SSW 21:01:20 10° S visible
28 Jan 7.1 19:41:15 10° WSW 19:47:28 19° SSW 19:55:04 10° SSE visible
29 Jan 6.8 18:34:16 10° WSW 18:40:14 22° SSW 18:48:03 10° SSE visible
30 Jan 7.3 19:33:42 10° SW 19:37:09 12° SSW 19:41:01 10° S visible
31 Jan 7.1 18:25:53 10° SW 18:30:02 15° SSW 18:35:01 10° SSE visible
